Weather History for KMGM - May, 2013

Change the Weather History Date:

Saturday, May 11, 2013

  Actual Average Record
Temperature  
Mean Temperature 71 °F 71 °F  
Max Temperature 79 °F 83 °F 95 °F (1916)
Min Temperature 63 °F 59 °F 45 °F (1990)
Cooling Degree Days 6 6  
Month to date cooling degree days 27 57  
Year to date cooling degree days 159 158  
Growing Degree Days 21 (Base 50)    
Moisture  
Dew Point 63 °F    
Average Humidity 75    
Maximum Humidity 93    
Minimum Humidity 56    
Precipitation  
Precipitation 0.03 in 0.12 in 2.01 in (1943)
Month to date precipitation 1.62 1.27  
Year to date precipitation 25.70 21.17  
Sea Level Pressure  
Sea Level Pressure 29.98 in    
Wind  
Wind Speed 4 mph (SW)    
Max Wind Speed 12 mph    
Max Gust Speed 16 mph    
Visibility 7 miles    
Events Fog    
T = Trace of Precipitation, MM = Missing Value Source: NWS Daily Summary

Daily Weather History Graph

Daily Weather History Graph

Search for Another Location

Airport or City:

Trip Planner

Search our weather history database for the weather conditions in past years. The results will help you decide how hot, cold, wet, or windy it might be!

Date:

Astronomy

May. 11, 2013 Rise Set
Actual Time 5:50 AM CDT 7:34 PM CDT
Civil Twilight 5:23 AM CDT 8:00 PM CDT
Nautical Twilight 4:51 AM CDT 8:33 PM CDT
Astronomical Twilight 4:17 AM CDT 9:07 PM CDT
Moon 6:59 AM CDT (5/11) 9:11 PM CDT (5/11)
Length of Visible Light 14h 37m
Length of Day
13h 43m
Waxing Crescent, 3% of the Moon is Illuminated
May 11
Waxing Crescent
May 17
First Quarter
May 24
Full
May 31
Last Quarter
Jun 8
New

Hourly Weather History & Observations

Time (CDT) Temp. Dew Point Humidity Pressure Visibility Wind Dir Wind Speed Gust Speed Precip Events Conditions
12:53 AM 68.0 °F 63.0 °F 84% 30.00 in 10.0 mi Calm Calm - N/A   Overcast
1:53 AM 66.9 °F 63.0 °F 87% 29.98 in 10.0 mi South 3.5 mph - N/A   Scattered Clouds
2:53 AM 66.0 °F 63.0 °F 90% 29.97 in 10.0 mi Calm Calm - N/A   Scattered Clouds
3:53 AM 64.0 °F 62.1 °F 93% 29.95 in 6.0 mi Calm Calm - N/A   Clear
4:53 AM 64.0 °F 61.0 °F 90% 29.96 in 5.0 mi Calm Calm - N/A   Clear
5:32 AM 62.6 °F 60.8 °F 94% 29.98 in 2.0 mi Calm Calm - N/A   Clear
5:40 AM 64.4 °F 62.6 °F 94% 29.97 in 1.5 mi Calm Calm - N/A   Partly Cloudy
5:42 AM 64.4 °F 62.6 °F 94% 29.98 in 1.0 mi Calm Calm - N/A   Mist
5:49 AM 64.4 °F 60.8 °F 88% 29.98 in 0.5 mi Calm Calm - N/A Fog Fog
5:53 AM 64.0 °F 61.0 °F 90% 29.98 in 0.5 mi Calm Calm - N/A Fog Fog
6:04 AM 62.6 °F 60.8 °F 94% 29.99 in 0.8 mi Calm Calm - N/A   Mist
6:07 AM 62.6 °F 60.8 °F 94% 29.99 in 1.5 mi Calm Calm - N/A   Partly Cloudy
6:14 AM 62.6 °F 60.8 °F 94% 29.99 in 6.0 mi NNW 3.5 mph - N/A   Partly Cloudy
6:27 AM 64.4 °F 62.6 °F 94% 29.99 in 2.5 mi Calm Calm - N/A   Mostly Cloudy
6:34 AM 64.4 °F 62.6 °F 94% 30.00 in 1.2 mi Calm Calm - N/A   Mostly Cloudy
6:47 AM 64.4 °F 62.6 °F 94% 29.99 in 2.0 mi Calm Calm - N/A   Mostly Cloudy
6:48 AM 64.9 °F 63.0 °F 93% 29.98 in 2.0 mi Calm Calm - N/A   Mostly Cloudy
6:55 AM 64.4 °F 62.6 °F 94% 29.99 in 3.0 mi Calm Calm - N/A   Scattered Clouds
7:53 AM 66.0 °F 63.0 °F 90% 30.00 in 6.0 mi SSW 3.5 mph - N/A   Partly Cloudy
8:26 AM 68.0 °F 62.6 °F 83% 30.01 in 10.0 mi Calm Calm - N/A   Partly Cloudy
8:53 AM 69.1 °F 63.0 °F 81% 29.99 in 10.0 mi Calm Calm - N/A   Scattered Clouds
9:53 AM 72.0 °F 64.0 °F 76% 30.00 in 10.0 mi South 4.6 mph - N/A   Scattered Clouds
10:10 AM 73.4 °F 64.4 °F 73% 30.01 in 10.0 mi SSW 6.9 mph - N/A   Mostly Cloudy
10:53 AM 73.9 °F 64.0 °F 71% 29.99 in 10.0 mi South 4.6 mph - N/A   Mostly Cloudy
11:00 AM 73.4 °F 64.4 °F 73% 29.99 in 10.0 mi South 4.6 mph - N/A   Clear
11:53 AM 75.9 °F 62.1 °F 62% 29.99 in 10.0 mi WSW 9.2 mph - N/A   Clear
12:53 PM 75.9 °F 62.1 °F 62% 30.00 in 10.0 mi SW 9.2 mph - N/A   Clear
1:53 PM 77.0 °F 61.0 °F 58% 29.99 in 10.0 mi SW 8.1 mph - N/A   Partly Cloudy
2:53 PM 77.0 °F 62.1 °F 60% 29.97 in 10.0 mi SW 6.9 mph - N/A   Clear
3:53 PM 77.0 °F 62.1 °F 60% 29.95 in 10.0 mi WSW 8.1 mph - N/A   Clear
4:53 PM 77.0 °F 63.0 °F 62% 29.94 in 10.0 mi WSW 8.1 mph - N/A   Clear
5:53 PM 75.9 °F 63.0 °F 64% 29.93 in 10.0 mi SW 4.6 mph - N/A   Clear
6:53 PM 73.9 °F 64.0 °F 71% 29.94 in 10.0 mi SW 3.5 mph - N/A   Clear
7:53 PM 73.0 °F 63.0 °F 71% 29.96 in 10.0 mi SW 4.6 mph - N/A   Scattered Clouds
8:53 PM 71.6 °F 64.4 °F 78% 29.98 in 10.0 mi SW 3.5 mph - N/A   Partly Cloudy
9:53 PM 70.0 °F 64.0 °F 81% 29.99 in 10.0 mi SW 4.6 mph - N/A   Scattered Clouds
10:53 PM 68.0 °F 64.9 °F 90% 30.01 in 10.0 mi West 4.6 mph - 0.03 in   Mostly Cloudy
11:53 PM 66.9 °F 64.0 °F 90% 30.00 in 9.0 mi WNW 5.8 mph - N/A   Partly Cloudy